Regional Weather Roundup
Issued by NWS Upton, NY

Current Version | Previous Version | Text Only | Print | Product List | Glossary Off
Versions: 1 2 3 4 5 6 7 8 9 10 11 12 13 14 15 16 17 18 19 20 21 22 23 24 25 26 27 28 29 30 31 32 33 34 35 36 37 38 39 40 41 42 43 44 45 46 47 48 49 50
000 ASUS41 KOKX 020004 RWROKX REGIONAL WEATHER ROUNDUP NATIONAL WEATHER SERVICE NEW YORK NY 800 PM EDT TUE SEP 01 2015 NOTE: "FAIR" INDICATES FEW OR NO CLOUDS BELOW 12,000 FEET WITH NO SIGNIFICANT WEATHER AND/OR OBSTRUCTIONS TO VISIBILITY. NYZ071-072-176-178-NJZ106-104-020100- NEW YORK CITY METRO AREA CITY SKY/WX TMP DP RH WIND PRES REMARKS CENTRAL PARK CLEAR 79 63 57 VRB3 30.05R LAGUARDIA APRT CLEAR 78 64 61 S9 30.02R KENNEDY INTL PTCLDY 77 65 66 S7 30.04R NEWARK/LIBERTY PTCLDY 80 66 62 S6 30.02R BRNX BOT. GARD N/A 77 64 65 E3 30.05R TETERBORO CLEAR 79 63 57 SW7 30.01R $$ NYZ177-179-078>081-020100- LONG ISLAND NEW YORK CITY SKY/WX TMP DP RH WIND PRES REMARKS FARMINGDALE CLEAR 77 64 64 S5 30.03R ISLIP PTCLDY 75 65 70 S6 30.02R SHIRLEY CLEAR 74 68 81 S5 30.04R WESTHAMPTON CLEAR 72 66 81 CALM 30.05S MONTAUK POINT N/A 73 67 81 S3 30.05R $$ NYZ052-065-067-020100- HUDSON VALLEY CITY SKY/WX TMP DP RH WIND PRES REMARKS WHITE PLAINS CLEAR 75 64 68 CALM 30.04R NEWBURGH CLEAR 81 63 54 CALM 30.04S MONTGOMERY CLEAR 73 66 78 CALM 30.03R POUGHKEEPSIE CLEAR 75 64 68 CALM 30.01R ALBANY PTCLDY 77 63 61 CALM 30.02R $$ NJZ001-105-106-008-010-013-015-019>022-104-020100- NEW JERSEY CITY SKY/WX TMP DP RH WIND PRES REMARKS NEWARK/LIBERTY PTCLDY 80 66 62 S6 30.02R TETERBORO CLEAR 79 63 57 SW7 30.01R CALDWELL CLEAR 81 64 56 CALM 30.03R MORRISTOWN PTCLDY 77 66 69 CALM 30.03R SOMERVILLE PTCLDY 77 64 64 CALM 30.00R SUSSEX CLEAR 71 64 78 CALM 30.04S ANDOVER N/A 70 66 87 CALM 30.05R TRENTON CLEAR 80 67 64 S7 30.02R MILLVILLE CLEAR 78 71 79 CALM 30.03R ATLANTIC CITY PTCLDY 76 72 87 E6 30.03R WRIGHTSTOWN CLEAR 76 67 73 E3 30.00S TOMS RIVER CLEAR 73 68 83 CALM 30.04R BELMAR MOCLDY 75 64 69 CALM 30.04R $$ PAZ047>061-062-071-020100- EASTERN PENNSYLVANIA CITY SKY/WX TMP DP RH WIND PRES REMARKS PHILADELPHIA PTCLDY 83 70 64 E9 30.01R ALLENTOWN CLEAR 82 64 54 SE3 30.03R SCRANTON CLEAR 76 65 68 SE3 30.05R $$ CTZ002-004>006-009-010-012-RIZ004-006-007-MAZ004-011-015-020100- SOUTHERN NEW ENGLAND IN CT CITY SKY/WX TMP DP RH WIND PRES REMARKS BRADLEY INTL CLEAR 74 66 76 NW5 30.01R HARTFORD CLEAR 78 64 61 S6 30.01R DANBURY CLEAR 75 63 66 CALM 30.05R WTRBRY/OXFORD CLEAR 75 61 60 S5 30.06S BRIDGEPORT CLEAR 79 66 64 S9 30.02R MERIDEN CLEAR 78 62 57 S7 30.02R NEW HAVEN CLEAR 76 68 76 CALM 30.03R CHESTER NOT AVBL GROTON CLEAR 70 68 93 S5 30.03R WILLIMANTIC CLEAR 76 63 64 S6 30.03R IN RI CITY SKY/WX TMP DP RH WIND PRES REMARKS PROVIDENCE PTCLDY 74 62 66 S9 30.04R BLOCK ISLAND CLEAR 70 66 88 S7 30.04S WESTERLY CLEAR 70 65 84 CALM 30.04R IN MA CITY SKY/WX TMP DP RH WIND PRES REMARKS BOSTON PTCLDY 70 63 78 SE7 30.03R WORCESTER CLEAR 72 56 57 W6 30.06R WESTFIELD CLEAR 72 62 71 CALM 30.02R PROVINCETOWN N/A 68 57 68 S5 30.04R NANTUCKET CLEAR 66 62 87 E6 30.04R $$ ANZ330-335-338-340-345-350-353-355-020100- COASTAL MARINE OBSERVATIONS STATION/POSITION TIME SKY/WX TEMP WIND PRES VSBY WAVE AIR SEA DIR/SP/G HT/PER (UTC) (F) (DEG/KT/KT) (MB) (MI) (FT/S) NY HARB ENTRANCE 2250 77 77 160/ 10/ 10 1016.2 2/ 8 4S FIRE IS NOT AVBL 20S FIRE ISLAND 2250 75 75 120/ 6/ 8 1016.6 2/ 8 GREAT SOUTH BAY 2300 75 79 210/ 4/ 6 N/A 23SW MTP 2350 73 72 150/ 4/ 6 1016.8 2/ 8 HUDSON CANYON NOT AVBL KINGS POINT 2300 80 76 190/ 8/ 11 1015.5 EXECUTION ROCKS 2300 80 170/ 6/ 10 N/A CENTRAL LI SOUND NOT AVBL EASTERN LI SOUND 2300 72 71 170/ 2/ 4 N/A ROBBINS REEF 2300 76 160/ 12/ 13 1015.3 $$ >>>>>>>>>>>>>>>>>>>>>>>>>>>> KEY <<<<<<<<<<<<<<<<<<<<<<<<<<< > < > SKY/WX - SKY CONDITION/PRESENT WEATHER < > TMP - TEMPERATURE IN FAHRENHEIT < > DP - DEWPOINT IN FAHRENHEIT < > RH - RELATIVE HUMIDITY IN PERCENT < > WIND - DIRECTION AND SPEED IN MPH < > PRES - MEAN SEA LEVEL PRESSURE IN INCHES OF HG < > WCI - WIND CHILL INDEX < > VSB - VISIBILITY IN MILES < > HX - HEAT INDEX < > TC - TEMPERATURE IN CELSIUS < > VRB - VARIABLE WIND DIRECTION < > < >>>>>>>>>>>>>>>>>>>>>>>>>>>> KEY <<<<<<<<<<<<<<<<<<<<<<<<<<<

USA.gov is the U.S. government's official web portal to all federal, state and local government web resources and services.